• In Netherlands
  • List of Countries
  • For 7 days
  • Water Temperature
  • Satellite Maps
  • Weather Map
  • Weather Widgets
  • user-avatar
    Login

    Hourly Weather Zagroby

    Today, 20 June, Wednesday

    Time Temperature Precipitation Wind Pressure Humidity
    00:00 +16°C° 0 mm 2 mps 753 mmHg 89%
    01:00 +15°C° 0 mm 2 mps 753 mmHg 90%
    02:00 +15°C° 0 mm 2 mps 753 mmHg 91%
    03:00 +15°C° 0 mm 2 mps 754 mmHg 91%
    04:00 +15°C° 0 mm 2 mps 754 mmHg 92%
    05:00 +16°C° 0 mm 3 mps 754 mmHg 83%
    06:00 +18°C° 0 mm 3 mps 754 mmHg 74%
    07:00 +20°C° 0 mm 4 mps 754 mmHg 65%
    08:00 +21°C° 0 mm 4 mps 754 mmHg 60%
    09:00 +22°C° 0 mm 5 mps 754 mmHg 55%
    10:00 +23°C° 0 mm 5 mps 754 mmHg 50%
    11:00 +25°C° 0 mm 5 mps 754 mmHg 48%
    12:00 +25°C° 0 mm 5 mps 754 mmHg 46%
    13:00 +26°C° 0 mm 5 mps 754 mmHg 43%
    14:00 +26°C° 0 mm 5 mps 753 mmHg 44%
    15:00 +26°C° 0 mm 4 mps 753 mmHg 45%
    16:00 +26°C° 0 mm 4 mps 753 mmHg 46%
    17:00 +25°C° 0 mm 3 mps 753 mmHg 52%
    18:00 +24°C° 0 mm 2 mps 752 mmHg 58%
    19:00 +23°C° 0 mm 1 mps 752 mmHg 64%
    20:00 +21°C° 0 mm 1 mps 752 mmHg 67%
    21:00 +20°C° 0 mm 1 mps 752 mmHg 70%
    22:00 +19°C° 0 mm 1 mps 752 mmHg 73%
    23:00 +18°C° 0 mm 2 mps 752 mmHg 75%

    Tomorrow, 21 June, Thursday

    Time Temperature Precipitation Wind Pressure Humidity
    00:00 +17°C° 0 mm 2 mps 752 mmHg 78%
    01:00 +17°C° 0 mm 2 mps 751 mmHg 81%
    02:00 +17°C° 0 mm 2 mps 751 mmHg 82%
    03:00 +18°C° 0 mm 2 mps 751 mmHg 82%
    04:00 +18°C° 0 mm 2 mps 750 mmHg 83%
    05:00 +20°C° 0.1 mm 3 mps 750 mmHg 80%
    06:00 +21°C° 0.1 mm 4 mps 750 mmHg 77%
    07:00 +22°C° 0.1 mm 4 mps 749 mmHg 74%
    08:00 +23°C° 0.1 mm 5 mps 749 mmHg 69%
    09:00 +26°C° 0.1 mm 5 mps 748 mmHg 64%
    10:00 +27°C° 0.1 mm 5 mps 748 mmHg 58%
    11:00 +28°C° 0 mm 6 mps 747 mmHg 55%
    12:00 +29°C° 0 mm 6 mps 746 mmHg 52%
    13:00 +30°C° 0 mm 6 mps 745 mmHg 49%
    14:00 +29°C° 0.1 mm 6 mps 744 mmHg 53%
    15:00 +29°C° 0.1 mm 6 mps 743 mmHg 56%
    16:00 +28°C° 0.1 mm 5 mps 742 mmHg 60%
    17:00 +27°C° 0.4 mm 5 mps 742 mmHg 64%
    18:00 +26°C° 0.4 mm 5 mps 741 mmHg 69%
    19:00 +25°C° 0.4 mm 5 mps 741 mmHg 74%
    20:00 +22°C° 0.8 mm 5 mps 741 mmHg 80%
    21:00 +20°C° 0.8 mm 5 mps 742 mmHg 86%
    22:00 +17°C° 0.8 mm 5 mps 742 mmHg 92%
    23:00 +15°C° 0.5 mm 5 mps 742 mmHg 91%

    Day after tomorrow, 22 June, Friday

    Time Temperature Precipitation Wind Pressure Humidity
    00:00 +14°C° 0.5 mm 5 mps 743 mmHg 91%
    01:00 +12°C° 0.5 mm 5 mps 743 mmHg 90%
    02:00 +10°C° 0 mm 5 mps 744 mmHg 90%
    03:00 +10°C° 0 mm 5 mps 744 mmHg 89%
    04:00 +9°C° 0 mm 6 mps 745 mmHg 88%
    05:00 +10°C° 0 mm 6 mps 745 mmHg 83%
    06:00 +11°C° 0 mm 6 mps 745 mmHg 77%
    07:00 +11°C° 0 mm 7 mps 746 mmHg 71%
    08:00 +14°C° 0 mm 7 mps 746 mmHg 64%
    09:00 +15°C° 0 mm 7 mps 746 mmHg 56%
    10:00 +16°C° 0 mm 8 mps 746 mmHg 49%
    11:00 +16°C° 0 mm 8 mps 746 mmHg 49%
    12:00 +17°C° 0 mm 8 mps 746 mmHg 49%
    13:00 +17°C° 0 mm 8 mps 746 mmHg 49%
    14:00 +16°C° 0 mm 8 mps 746 mmHg 51%
    15:00 +16°C° 0 mm 8 mps 746 mmHg 53%
    16:00 +16°C° 0 mm 7 mps 746 mmHg 55%
    17:00 +15°C° 0 mm 6 mps 746 mmHg 60%
    18:00 +14°C° 0 mm 5 mps 747 mmHg 64%
    19:00 +14°C° 0 mm 4 mps 747 mmHg 69%
    20:00 +12°C° 0 mm 3 mps 747 mmHg 74%
    21:00 +11°C° 0 mm 3 mps 747 mmHg 80%
    22:00 +10°C° 0 mm 3 mps 747 mmHg 85%
    23:00 +9°C° 0 mm 3 mps 747 mmHg 87%

    23 June, Saturday

    Time Temperature Precipitation Wind Pressure Humidity
    00:00 +9°C° 0 mm 3 mps 748 mmHg 88%
    01:00 +9°C° 0 mm 3 mps 748 mmHg 90%
    02:00 +8°C° 0 mm 3 mps 748 mmHg 90%
    03:00 +8°C° 0 mm 3 mps 748 mmHg 90%
    04:00 +8°C° 0 mm 3 mps 748 mmHg 90%
    05:00 +10°C° 0 mm 3 mps 748 mmHg 82%
    06:00 +12°C° 0 mm 4 mps 748 mmHg 74%
    07:00 +14°C° 0 mm 5 mps 748 mmHg 66%
    08:00 +15°C° 0.5 mm 5 mps 747 mmHg 67%
    09:00 +15°C° 0.5 mm 5 mps 747 mmHg 69%
    10:00 +16°C° 0.5 mm 6 mps 747 mmHg 70%
    11:00 +16°C° 0.6 mm 6 mps 747 mmHg 70%
    12:00 +16°C° 0.6 mm 5 mps 747 mmHg 69%
    13:00 +16°C° 0.6 mm 5 mps 747 mmHg 69%
    14:00 +16°C° 0.4 mm 5 mps 747 mmHg 68%
    15:00 +16°C° 0.4 mm 5 mps 747 mmHg 67%
    16:00 +16°C° 0.4 mm 5 mps 747 mmHg 65%
    17:00 +16°C° 0.2 mm 5 mps 747 mmHg 69%
    18:00 +15°C° 0.2 mm 4 mps 747 mmHg 73%
    19:00 +14°C° 0.2 mm 4 mps 748 mmHg 77%
    20:00 +13°C° 0 mm 3 mps 748 mmHg 80%
    21:00 +11°C° 0 mm 3 mps 748 mmHg 84%
    22:00 +10°C° 0 mm 3 mps 748 mmHg 87%
    23:00 +10°C° 0 mm 2 mps 748 mmHg 88%

    24 June, Sunday

    Time Temperature Precipitation Wind Pressure Humidity
    00:00 +9°C° 0 mm 2 mps 748 mmHg 88%
    01:00 +9°C° 0 mm 2 mps 749 mmHg 88%
    02:00 +9°C° 0 mm 2 mps 749 mmHg 89%
    03:00 +9°C° 0 mm 2 mps 749 mmHg 89%
    04:00 +9°C° 0 mm 2 mps 749 mmHg 89%
    05:00 +12°C° 0 mm 2 mps 749 mmHg 84%
    06:00 +13°C° 0 mm 2 mps 749 mmHg 79%
    07:00 +14°C° 0 mm 3 mps 750 mmHg 74%
    08:00 +17°C° 0.1 mm 3 mps 750 mmHg 67%
    09:00 +18°C° 0.1 mm 3 mps 750 mmHg 60%
    10:00 +19°C° 0.1 mm 3 mps 750 mmHg 54%
    11:00 +20°C° 0.2 mm 4 mps 750 mmHg 53%
    12:00 +20°C° 0.2 mm 4 mps 750 mmHg 52%
    13:00 +21°C° 0.2 mm 4 mps 750 mmHg 52%
    14:00 +20°C° 0.4 mm 4 mps 750 mmHg 54%
    15:00 +20°C° 0.4 mm 4 mps 750 mmHg 57%
    16:00 +20°C° 0.4 mm 4 mps 750 mmHg 60%
    17:00 +19°C° 0.2 mm 3 mps 750 mmHg 65%
    18:00 +18°C° 0.2 mm 2 mps 750 mmHg 70%
    19:00 +18°C° 0.2 mm 1 mps 750 mmHg 75%
    20:00 +15°C° 0 mm 2 mps 751 mmHg 79%
    21:00 +14°C° 0 mm 2 mps 751 mmHg 82%
    22:00 +12°C° 0 mm 2 mps 751 mmHg 85%
    23:00 +12°C° 0 mm 2 mps 751 mmHg 87%

    25 June, Monday

    Time Temperature Precipitation Wind Pressure Humidity
    00:00 +10°C° 0 mm 2 mps 751 mmHg 88%
    01:00 +9°C° 0 mm 2 mps 752 mmHg 90%
    02:00 +9°C° 0 mm 2 mps 752 mmHg 88%
    03:00 +9°C° 0 mm 2 mps 752 mmHg 87%
    04:00 +8°C° 0 mm 2 mps 752 mmHg 86%
    05:00 +12°C° 0 mm 2 mps 752 mmHg 78%
    06:00 +14°C° 0 mm 2 mps 752 mmHg 70%
    07:00 +16°C° 0 mm 2 mps 752 mmHg 62%
    08:00 +18°C° 0 mm 3 mps 752 mmHg 56%
    09:00 +19°C° 0 mm 3 mps 752 mmHg 50%
    10:00 +21°C° 0 mm 4 mps 752 mmHg 44%
    11:00 +22°C° 0 mm 4 mps 752 mmHg 43%
    12:00 +23°C° 0 mm 4 mps 752 mmHg 42%
    13:00 +23°C° 0 mm 4 mps 752 mmHg 41%
    14:00 +23°C° 0 mm 4 mps 751 mmHg 43%
    15:00 +23°C° 0 mm 4 mps 751 mmHg 46%
    16:00 +22°C° 0 mm 4 mps 751 mmHg 49%
    17:00 +21°C° 0.1 mm 4 mps 751 mmHg 57%
    18:00 +19°C° 0.1 mm 3 mps 751 mmHg 65%
    19:00 +18°C° 0.1 mm 3 mps 751 mmHg 73%
    20:00 +17°C° 0 mm 2 mps 751 mmHg 75%
    21:00 +16°C° 0 mm 2 mps 751 mmHg 78%
    22:00 +15°C° 0 mm 2 mps 751 mmHg 80%
    23:00 +15°C° 0 mm 2 mps 751 mmHg 82%
    Show more